Location: Grand Saint-Jean
(43.6035°N, 5.3728°E)
Time: 21:24:34
(UTC+00:00)

Daily predictions for brighter satellites

Satellite Brightness Start Highest point End
(mag) Time Altitude Azimuth Time Altitude Azimuth Time Altitude Azimuth
USA 267 4.0 16:53:04 10° NE 16:59:16 47° NNW 17:05:27 10° W
Starlink Q 2.7 16:57:09 10° SW 17:00:04 84° SE 17:02:59 10° NE
ATLAS 5 CENTAUR R/B 2.5 16:57:02 10° WSW 17:01:06 45° NW 17:05:38 10° NNE
Starlink P 2.7 16:58:23 10° SW 17:01:17 86° SSE 17:04:14 10° NE
Starlink U 2.7 16:59:36 10° SW 17:02:31 89° SSE 17:05:27 10° NE
Starlink B 2.7 17:00:52 10° SW 17:03:47 89° NNW 17:06:43 10° NE
Cosmos 2333 4.2 17:01:12 10° NNW 17:06:58 80° ENE 17:12:37 10° SSE
Starlink D 2.7 17:05:01 10° WSW 17:07:57 81° NW 17:10:55 10° NE
Cosmos 2322 3.8 17:03:02 10° NNW 17:08:44 88° WSW 17:14:24 10° SSE
Starlink S 2.8 17:06:20 10° WSW 17:09:17 79° NW 17:12:14 10° NE
Cosmos 1626 2.7 17:05:54 10° SSE 17:09:19 36° E 17:12:45 10° NNE
Starlink C 2.8 17:07:36 10° WSW 17:10:33 77° NW 17:13:31 10° NE
Starlink E 2.8 17:08:56 10° WSW 17:11:53 74° NNW 17:14:49 10° NE
Starlink J 2.8 17:10:16 10° WSW 17:13:13 72° NNW 17:16:05 11° NE
Cosmos 1242 Rocket 2.7 17:10:43 10° S 17:14:05 50° E 17:17:32 10° NNE
Starlink V 2.9 17:11:34 10° WSW 17:14:30 70° NW 17:17:21 11° NE
YAOGAN 6 3.1 17:11:15 10° SE 17:14:42 38° ENE 17:18:08 10° N
CORIOLIS 4.2 17:09:26 10° SSE 17:14:50 88° ENE 17:20:14 10° NNW
Starlink H 2.9 17:12:55 10° WSW 17:15:51 68° NNW 17:18:38 11° NE
Cosmos 1607 3.9 17:10:09 10° SSW 17:16:14 75° ESE 17:22:24 10° NE
NOAA 12 4.0 17:11:08 10° SSE 17:16:20 73° ENE 17:21:34 10° N
Cosmos 2297 Rocket 3.6 17:12:51 10° SE 17:16:40 19° E 17:20:27 10° ENE
Starlink F 2.9 17:14:16 10° WSW 17:17:12 66° NNW 17:19:56 12° NE
Cosmos 1980 4.5 17:12:42 10° N 17:17:41 30° NE 17:22:38 10° ESE
SMAP 3.4 17:13:29 10° S 17:18:07 70° WSW 17:22:47 10° NNW
Starlink G 3.0 17:15:36 10° WSW 17:18:31 64° NW 17:21:13 12° NE
IRS-1C Rocket 4.4 17:14:07 10° S 17:19:22 74° WSW 17:24:38 10° NNW
H-2A R/B 3.5 17:15:54 10° S 17:19:39 59° W 17:23:29 10° NNW
Starlink L 3.0 17:16:56 10° WSW 17:19:52 62° NNW 17:22:30 12° NE
SJ 16-02 3.7 17:17:34 10° WSW 17:20:53 21° WNW 17:24:14 10° N
Starlink A 3.0 17:18:18 10° WSW 17:21:13 60° NNW 17:23:48 13° NE
Starlink R 3.1 17:19:39 10° WSW 17:22:35 59° NNW 17:25:07 13° NE
Cosmos 2360 Rocket 3.8 17:17:30 10° NW 17:22:43 39° WSW 17:27:53 10° S
Starlink K 3.1 17:20:58 10° WSW 17:23:54 57° NNW 17:26:23 13° NE
Starlink M 3.2 17:22:16 10° WSW 17:25:12 56° NNW 17:27:38 14° NE
Cosmos 2150 Rocket 4.1 17:20:14 10° SSW 17:25:24 81° WNW 17:30:35 10° NNE
CZ-4 R/B 1.9 17:24:50 10° SE 17:28:31 36° ENE 17:32:17 10° N
Cosmos 2227 Rocket 3.4 17:24:22 10° SSE 17:28:32 21° E 17:31:48 13° ENE
COSMOS 2428 2.7 17:23:38 10° NNW 17:29:25 80° ENE 17:35:09 10° SSE
Cosmos 2219 Rocket 2.2 17:25:30 10° NNW 17:31:14 85° ENE 17:36:53 10° SSE
SKYMED 2 3.7 17:28:51 10° NNE 17:33:07 53° E 17:37:21 10° S
USA 234 4.2 17:27:15 10° SSE 17:33:34 51° SW 17:39:54 10° WNW
Cosmos 2184 Rocket 4.2 17:28:07 10° SSW 17:34:17 74° W 17:40:28 10° N
Cosmos 2154 Rocket 4.0 17:35:48 10° S 17:42:05 82° E 17:48:22 10° N
Cosmos 1125 Rocket 3.4 17:39:22 10° SSW 17:44:32 84° ESE 17:49:46 10° NNE
Cosmos 1812 Rocket 3.5 17:41:53 10° N 17:46:22 75° E 17:50:49 10° SSE
USA 116 3.7 17:50:27 26° NE 17:51:43 36° E 17:54:36 10° SSE
YAOGAN 1 2.6 17:48:47 10° SSE 17:53:00 54° ENE 17:57:15 10° N
Cosmos 724 4.5 17:49:48 10° SSW 17:55:35 53° ESE 17:59:40 19° NE
Envisat 3.9 17:52:00 10° S 17:56:57 53° W 18:01:56 10° NNW
Cosmos 1269 Rocket 4.0 17:56:27 10° NNW 18:01:42 63° ENE 18:06:55 10° SSE
CSL-04 Debris 4.0 18:00:09 10° SSE 18:05:30 71° ENE 18:10:53 10° N
Cosmos-2242 3.2 18:03:08 10° N 18:07:21 47° ENE 18:11:29 10° SSE
CZ-4C R/B 3.0 18:01:23 10° NW 18:08:43 86° SW 18:17:03 10° SSE
CZ-2D R/B 3.2 18:05:31 10° SSE 18:09:15 58° ENE 18:13:02 10° N
Cosmos 2366 rocket 4.2 18:06:18 10° SSE 18:12:09 46° E 18:18:04 10° NNE
Starlink AQ 4.4 18:10:26 10° W 18:12:53 24° NNW 18:13:16 23° N
ISS -1.8 18:10:44 10° S 18:12:26 18° SSE 18:12:26 18° SSE
Meteor 2-10 Rocket 3.7 18:10:00 10° N 18:15:12 48° ENE 18:20:12 10° SSE
Starlink AS 4.4 18:13:00 10° WNW 18:15:25 23° NNW 18:15:42 23° NNW
Starlink BA 4.4 18:13:13 10° WNW 18:15:38 23° NNW 18:15:54 23° NNW
Starlink AU 4.4 18:13:26 10° WNW 18:15:51 23° NNW 18:16:06 23° NNW
Starlink AT 4.5 18:13:40 10° WNW 18:16:05 23° NNW 18:16:20 23° NNW
Starlink BB 4.5 18:13:53 10° WNW 18:16:18 23° NNW 18:16:32 23° NNW
Starlink BC 4.5 18:14:07 10° WNW 18:16:32 23° NNW 18:16:45 23° NNW
Starlink BK 4.5 18:14:20 10° WNW 18:16:45 23° NNW 18:16:58 23° NNW
Starlink AY 4.5 18:14:33 10° WNW 18:16:58 23° NNW 18:17:11 23° NNW
Starlink AW 4.5 18:14:47 10° WNW 18:17:11 23° NNW 18:17:23 23° NNW
Starlink BJ 4.5 18:14:57 10° WNW 18:17:23 23° NNW 18:17:34 23° NNW
Starlink AV 4.5 18:15:11 10° WNW 18:17:35 23° NNW 18:17:46 23° NNW
Starlink BD 4.5 18:15:25 10° WNW 18:17:49 23° NNW 18:18:00 23° NNW
Cosmos 2333 Rocket 3.7 18:12:51 10° NW 18:18:08 39° WSW 18:23:20 10° S
Cosmos 962 Rocket 4.5 18:13:37 10° S 18:19:44 82° W 18:25:55 10° N
Cosmos 2237 Rocket 2.1 18:14:38 10° NNW 18:20:18 80° ENE 18:25:55 10° SSE
Meteor 1-21 Rocket 4.1 18:15:14 10° S 18:20:48 86° E 18:26:30 10° N
COSMO-SKYMED 1 3.6 18:17:02 10° N 18:21:13 46° WNW 18:25:21 10° SW
Cosmos 1340 Rocket 4.0 18:18:45 10° NNW 18:22:30 42° W 18:26:15 10° SSW
Cosmos 1953 Rocket 3.6 18:19:15 10° S 18:23:39 59° E 18:25:10 37° NNE
ADEOS Rocket 3.3 18:20:59 10° NNE 18:27:21 54° E 18:34:21 10° S
Cosmos 1758 Rocket 3.7 18:24:48 10° SSW 18:29:05 71° W 18:33:07 12° N
CSL-04 Rocket 4.0 18:29:56 10° S 18:35:21 67° WSW 18:40:53 10° NNW
Cosmos 1727 Rocket 4.0 18:31:20 10° N 18:37:23 53° ENE 18:43:23 10° SSE
ERBS 3.0 18:34:17 10° SW 18:36:50 50° SW 18:36:50 50° SW
Cosmos 1939 Rocket 3.2 18:34:12 10° S 18:38:02 63° W 18:41:57 10° NNW
Cosmos 1455 4.2 18:35:31 10° N 18:36:37 18° N 18:36:37 18° N
Ariane Rocket 2.9 18:37:49 30° SE 18:40:14 65° ENE 18:45:16 10° N
SL-16 R/B 2.5 18:34:49 10° NNW 18:39:50 44° NE 18:39:50 44° NE
Cosmos 44 4.0 18:36:25 10° S 18:39:36 35° SSE 18:39:36 35° SSE
H-2A R/B 4.0 18:46:39 15° N 18:46:39 15° N 18:47:33 10° N
Cosmos 2219 3.6 18:37:38 10° SW 18:43:10 62° WNW 18:46:52 22° NNE
ATLAS 5 CENTAUR R/B 4.3 18:45:19 10° NW 18:47:07 12° NNW 18:49:00 10° N
SL-8 R/B 4.1 18:42:47 10° SW 18:46:59 47° SSE 18:46:59 47° SSE
Cosmos 2082 3.7 18:42:02 10° S 18:47:23 57° ESE 18:47:23 57° ESE
SL-8 Rocket 4.2 18:43:42 10° SSW 18:50:00 73° W 18:56:19 10° N
Cosmos 2251 Rocket 4.5 18:53:16 10° NNW 18:56:25 34° N 18:56:25 34° N
Cosmos 2297 Rocket 2.5 18:54:31 10° SW 19:00:07 65° WNW 19:02:19 37° N
CZ-4 R/B 4.2 19:00:50 10° SW 19:03:41 19° W 19:06:35 10° NW
DELTA 2 R/B (1) 3.8 18:58:36 10° WSW 19:04:01 56° S 19:04:01 56° S
Cosmos 2227 Rocket 2.7 19:06:32 10° SW 19:12:06 58° WNW 19:13:41 43° N
SL-08 R/B 4.5 19:10:03 10° S 19:16:19 82° W 19:19:31 32° N
Atlas Centaur 2 4.3 19:22:59 10° SSW 19:24:53 16° S 19:24:53 16° S
FALCON 9 R/B 4.3 19:24:24 10° SW 19:33:10 23° S 19:33:10 23° S
SL-16 R/B 4.4 20:19:24 10° NW 20:21:47 21° WNW 20:21:47 21° WNW
